Lapse_Rate
6.3 6.2 6.2 6.2 6.0 5.9 5.9 5.8 5.6 5.6 6.0 6.3 6.2 6.1 5.9 5.7 5.5 5.3 5.3 5.3 5.1 4.7 4.5 4.4 4.1 3.7 3.4 3.1 3.0 2.9 2.7 2.7 2.3 2.2 2.4 2.5 2.6 2.5
6.1 6.2 6.2 6.1 6.0 6.0 5.9 5.8 5.7 5.5 5.5 5.7 5.7 5.6 5.6 5.6 5.6 5.6 5.4 5.0 4.6 4.2 3.9 3.6 3.2 3.1 2.8 2.8 2.6 2.4 2.6 2.7 3.1 3.6 3.8 3.9 4.0 3.8
6.1 6.1 6.3 6.3 6.1 6.0 5.9 5.8 5.6 5.5 5.6 5.6 5.3 5.2 5.4 5.4 5.2 5.0 4.6 4.3 4.0 3.6 3.3 3.1 2.9 2.5 2.9 2.5 3.1 3.7 4.0 4.4 4.9 5.3 5.8 5.9 5.7 5.5
6.3 6.5 6.4 6.1 6.1 5.8 5.7 5.6 5.6 5.5 5.4 5.4 5.3 5.4 5.1 4.8 4.5 4.1 3.8 3.6 3.4 3.1 2.9 2.9 2.8 3.5 3.5 4.2 4.7 4.9 5.3 5.7 5.9 6.1 6.1 6.0 5.7 5.6
6.3 6.3 6.1 6.2 6.0 5.7 5.5 5.5 5.4 5.2 5.2 5.3 5.3 4.9 4.6 4.3 4.0 3.6 3.4 3.2 2.9 2.8 3.2 3.6 4.0 4.5 4.5 4.5 4.6 4.9 5.3 5.5 5.8 5.8 5.7 5.5 5.5 5.7
6.0 6.0 6.1 6.0 5.7 5.5 5.4 5.3 5.3 5.3 5.2 5.0 4.8 4.5 4.2 3.7 3.4 3.1 3.2 3.0 3.6 4.1 4.8 4.8 4.9 4.6 4.5 4.5 4.6 4.6 4.7 5.0 5.2 5.3 5.3 5.3 5.5 5.7
6.0 6.0 5.9 5.7 5.4 5.2 5.2 5.1 5.2 5.1 4.8 4.4 4.2 3.9 3.4 3.2 2.9 2.9 3.2 4.0 5.2 5.2 5.2 5.0 5.0 5.1 4.9 4.7 4.5 4.4 4.2 4.4 4.8 4.9 5.1 5.3 5.3 5.3
5.9 5.8 5.6 5.3 5.2 5.0 5.0 5.1 4.9 4.3 4.1 3.7 3.4 3.1 2.9 2.7 2.8 3.5 4.5 5.1 5.7 5.6 5.4 5.6 5.4 5.5 5.5 5.3 4.9 4.3 4.2 4.4 4.7 4.9 5.0 4.9 5.0 5.1
5.8 5.6 5.4 5.2 5.1 5.1 5.1 4.8 4.3 4.0 3.4 3.1 2.9 2.6 2.6 2.9 4.1 4.7 4.9 5.0 5.5 5.6 5.3 5.7 5.6 5.7 5.8 5.8 5.3 4.5 4.3 4.4 4.5 4.7 4.6 4.7 4.9 5.1
5.5 5.3 5.2 5.2 5.2 5.0 4.6 4.3 4.0 3.7 2.9 2.6 2.5 2.9 3.6 4.4 4.5 4.6 4.9 5.1 5.5 5.6 5.1 5.3 5.8 6.2 6.4 6.3 5.9 4.9 4.3 4.2 4.5 4.8 4.7 4.8 5.1 5.3
5.1 5.1 5.2 5.1 4.7 4.5 4.2 3.8 3.5 3.0 2.8 2.9 3.4 4.1 4.3 4.4 4.5 4.8 5.0 5.3 5.8 6.1 6.0 5.2 6.1 6.4 6.6 7.0 6.6 5.8 4.9 4.6 4.4 4.6 4.7 5.0 5.2 5.3
5.4 5.2 4.8 4.6 4.4 4.1 3.6 3.4 3.2 3.1 3.5 4.3 4.6 4.6 4.7 4.8 4.8 4.7 4.8 5.2 5.4 6.0 5.5 5.6 6.1 6.0 6.7 7.0 7.3 6.5 5.7 4.9 4.3 4.8 5.0 5.1 5.3 5.4
5.3 5.0 4.7 4.4 3.9 3.5 3.2 3.0 3.2 3.8 4.7 4.9 4.9 4.9 5.1 5.1 5.1 5.0 5.1 5.3 5.7 6.0 5.6 5.5 5.8 5.6 5.5 6.0 7.1 6.6 6.3 5.6 4.8 5.0 5.2 5.3 5.2 5.3
4.9 4.5 4.1 3.8 3.4 3.1 3.0 3.2 4.1 4.8 4.9 4.9 4.9 4.9 5.2 5.3 5.4 5.6 5.9 6.0 6.2 6.3 6.0 5.7 5.6 5.4 5.5 5.8 6.4 6.7 6.4 5.8 5.4 5.3 5.3 5.4 5.3 5.4
4.4 4.0 3.7 3.2 3.0 3.0 3.6 4.4 4.8 4.8 4.9 4.9 5.0 5.1 5.3 5.5 5.8 6.1 6.3 6.5 6.7 6.6 6.4 6.0 5.5 5.4 5.4 5.6 5.8 6.3 6.1 6.2 5.3 5.4 5.5 5.5 5.6 5.8
4.0 3.5 3.2 3.1 3.2 4.3 4.8 4.8 4.8 4.8 4.9 5.0 5.1 5.2 5.4 5.8 6.2 6.5 6.8 6.9 7.0 7.0 6.7 6.0 5.7 5.3 5.5 5.6 5.5 5.9 5.7 5.9 5.7 5.3 5.3 5.8 6.0 6.1
3.7 3.2 3.0 3.2 4.2 4.8 4.7 4.6 4.7 4.9 4.9 5.0 5.1 5.4 5.7 6.2 6.6 6.6 6.7 6.9 6.9 6.7 6.6 6.1 5.8 5.5 5.4 5.0 5.2 5.3 5.2 5.4 5.5 5.8 5.8 6.2 6.6 6.5
3.3 3.2 3.3 4.4 5.0 4.9 4.9 4.9 4.9 5.0 5.1 5.2 5.4 5.5 5.9 6.2 6.4 6.6 6.6 6.5 6.5 6.4 5.9 5.6 5.6 5.8 5.8 5.4 4.6 5.2 5.6 5.8 5.8 5.7 5.5 5.8 6.8 6.8
3.2 3.4 4.4 5.0 4.8 4.9 5.1 5.1 5.2 5.2 5.3 5.3 5.5 5.6 5.8 6.1 6.1 6.0 6.0 6.0 6.1 5.8 5.5 5.3 5.3 5.1 5.6 5.8 5.0 4.4 4.5 5.0 5.2 5.7 5.8 6.1 6.6 6.7
3.6 4.4 4.8 4.8 4.9 5.0 5.1 5.2 5.3 5.5 5.4 5.4 5.6 5.7 5.6 5.8 5.8 5.8 5.6 5.6 5.6 5.6 5.4 5.0 4.8 4.7 4.7 5.0 5.7 5.4 4.4 4.5 4.8 5.6 6.1 6.4 6.2 6.3
4.6 4.8 4.9 5.0 5.1 5.2 5.4 5.4 5.6 5.6 5.5 5.7 5.6 5.7 5.7 5.7 5.7 5.5 5.5 5.2 5.0 4.9 5.0 4.9 4.7 4.6 4.8 5.1 5.4 5.5 5.3 4.8 4.9 5.3 5.9 6.3 6.5 6.8
4.9 5.0 5.1 5.2 5.4 5.5 5.6 5.7 5.6 5.6 5.6 5.8 5.8 6.0 5.7 5.6 5.6 5.6 5.3 5.2 5.0 4.9 4.9 5.0 4.9 4.9 5.0 5.1 5.2 5.3 5.6 5.6 5.2 5.3 5.4 5.4 5.7 6.8
5.1 5.1 5.2 5.4 5.6 5.8 5.8 5.7 5.7 5.7 5.8 5.9 6.0 5.9 5.8 5.7 5.5 5.4 5.3 5.0 5.0 5.1 4.9 5.0 5.1 4.9 4.9 4.7 4.6 4.7 5.0 5.2 5.3 5.8 5.4 5.3 5.3 5.4
Wind_Speed
3 3 2 1 1 1 1 2 3 3 4 3 2 5 12 15 16 18 16 19 25 31 30 28 30 32 31 31 30 31 30 31 31 32 34 34 35 34
2 3 2 1 1 1 1 1 2 3 4 2 3 4 10 13 16 18 17 27 26 28 29 29 33 31 29 31 31 32 31 32 33 33 34 35 34 33
2 3 3 3 2 2 1 1 2 2 5 4 3 4 4 7 10 17 20 19 18 24 30 31 29 31 33 31 33 34 33 34 33 32 33 34 33 33
1 2 3 2 2 3 2 3 2 3 3 11 5 5 6 6 10 11 13 18 19 23 27 30 33 31 33 33 33 32 34 32 31 31 32 33 33 33
1 2 3 3 4 3 3 3 3 4 4 5 9 6 6 8 10 9 8 9 16 21 27 29 31 30 30 31 32 32 33 33 32 32 31 32 32 32
3 3 3 3 4 4 4 6 5 4 4 5 6 7 7 9 6 9 9 5 9 15 22 26 27 29 30 30 31 31 30 30 30 30 30 30 31 31
4 4 2 3 8 9 4 4 4 4 3 3 5 8 8 8 9 7 9 11 11 10 10 7 7 12 17 24 25 28 28 31 32 32 31 30 30 30
4 5 5 7 7 11 13 16 13 5 2 4 7 9 10 9 4 9 10 11 11 8 3 10 9 10 10 15 25 31 33 32 32 31 32 31 29 28
4 5 5 4 8 6 10 14 14 15 15 11 10 9 10 11 10 11 11 9 11 11 10 12 10 11 10 15 28 33 33 32 30 27 26 25 25 25
5 5 5 6 6 7 6 5 6 6 7 6 8 9 9 10 11 11 12 11 10 10 9 12 10 12 11 10 28 32 30 27 26 26 27 29 28 26
4 6 6 6 13 17 8 5 6 5 11 20 21 22 24 26 20 9 8 9 11 11 11 9 8 10 11 13 12 23 23 24 28 28 26 26 27 27
5 5 11 11 17 17 9 6 5 6 9 8 5 10 15 13 20 8 7 9 10 9 4 3 9 8 6 6 6 8 10 20 25 27 27 26 27 13
3 3 4 16 18 20 19 5 7 12 10 5 7 8 8 8 7 7 8 7 10 10 15 11 7 10 8 10 8 9 11 12 10 14 24 26 26 20
4 4 6 16 20 20 14 17 18 14 6 7 8 8 8 9 8 9 11 10 13 14 16 13 8 11 12 13 14 9 10 11 10 10 10 17 25 26
4 11 16 17 17 11 15 17 15 5 6 7 8 9 7 8 11 10 10 13 12 15 17 13 11 13 11 12 13 14 14 12 12 11 8 9 11 11
12 5 9 11 11 12 9 7 5 5 6 7 8 9 9 8 9 8 9 10 10 12 12 14 11 11 11 12 12 14 14 10 10 12 11 12 12 11
8 2 3 3 4 5 5 5 5 6 6 7 8 9 10 9 10 9 9 10 10 11 12 12 12 11 11 15 13 14 14 13 12 13 12 12 13 11
3 3 3 4 5 6 7 7 7 10 7 8 9 8 9 10 10 10 9 9 10 11 12 12 11 11 11 11 20 14 14 12 12 13 12 12 13 12
3 3 3 4 5 6 6 6 8 8 8 7 8 9 9 9 13 11 10 10 11 11 12 11 10 10 12 14 11 16 10 11 12 13 11 11 13 13
3 4 4 5 6 6 6 7 8 8 8 8 8 9 9 9 10 11 10 11 11 11 12 11 10 10 10 13 15 16 17 9 10 11 12 11 13 25
4 4 4 5 5 6 6 7 8 8 10 9 9 9 9 8 10 10 11 20 20 11 12 11 12 26 13 12 10 13 12 16 15 12 12 11 11 11
5 5 6 5 6 6 7 7 8 9 9 8 9 9 9 8 10 11 11 11 11 11 12 11 12 11 10 9 12 16 13 13 17 20 21 20 10 8
4 6 6 6 6 6 7 7 8 9 9 9 9 9 9 9 10 10 10 11 11 10 11 12 11 10 10 9 14 12 18 16 12 13 13 22 21 21
Wind_Direction
161 157 170 199 116 123 157 172 179 294 300 299 295 325 319 309 305 307 302 301 304 305 301 301 302 301 298 294 293 296 297 293 288 286 282 278 276 274
156 163 178 189 177 220 240 214 188 212 265 232 285 287 297 306 307 316 310 306 302 302 300 301 301 297 297 300 300 295 292 291 288 286 284 281 279 278
129 181 214 207 247 273 255 262 264 231 273 291 276 294 304 297 300 301 298 296 291 297 302 302 302 303 301 299 299 295 295 292 289 285 283 281 280 278
219 214 241 238 236 245 241 263 233 254 257 301 300 296 285 280 288 292 292 289 294 295 299 305 303 302 298 297 295 297 294 292 291 289 287 282 283 281
253 240 253 236 263 259 260 255 249 275 267 278 290 293 291 294 292 284 279 285 284 290 300 298 299 299 298 299 296 297 298 297 293 289 285 283 280 278
3 356 293 266 260 263 244 251 261 265 259 268 287 294 294 300 286 296 299 294 295 294 291 288 292 291 296 296 296 295 294 293 289 285 282 280 277 276
346 337 317 280 302 294 281 257 255 256 256 265 286 298 297 304 305 303 297 302 297 291 281 278 276 286 284 288 290 293 290 288 290 289 284 280 277 275
328 317 298 290 288 295 301 299 298 283 260 290 293 297 299 300 290 300 297 300 301 282 274 294 291 288 285 282 286 291 293 293 288 288 287 281 276 274
318 309 308 301 313 295 283 289 295 298 297 303 295 287 288 293 289 291 283 284 292 296 293 291 291 284 284 284 290 292 292 293 293 290 285 280 278 280
333 338 329 307 307 298 268 269 261 255 266 275 270 281 272 281 286 295 296 297 289 289 286 287 293 286 291 284 286 288 287 288 288 291 293 295 288 283
331 326 311 305 319 308 302 273 276 263 286 296 298 299 303 305 303 306 300 305 298 296 296 289 284 289 290 285 272 275 282 289 294 291 290 288 285 282
292 290 308 316 312 310 312 303 299 290 287 288 287 296 295 283 297 291 283 287 289 300 278 295 298 303 295 263 271 284 279 276 284 287 287 286 284 281
286 294 295 314 313 320 320 320 297 304 326 319 301 298 299 297 294 289 278 265 282 275 281 295 295 290 276 295 281 286 284 283 278 279 279 279 280 274
304 295 287 312 326 324 324 316 315 336 325 312 303 303 305 300 292 288 282 272 264 265 279 279 275 282 285 285 290 289 283 284 279 274 272 271 275 275
293 299 327 328 328 331 323 326 331 325 312 307 305 301 295 288 291 290 289 286 277 277 277 272 265 273 272 276 282 286 287 291 282 273 269 266 273 271
297 300 328 338 338 327 326 317 305 303 303 303 299 297 297 298 298 299 296 300 293 293 290 276 264 263 272 270 274 280 282 278 278 278 275 274 272 265
338 350 338 323 321 319 315 307 307 303 301 300 297 302 300 302 299 302 294 293 286 297 299 299 290 267 259 265 277 273 275 277 277 275 274 276 273 270
16 336 319 310 313 317 314 313 309 309 302 302 301 298 299 300 300 298 296 294 291 295 295 295 296 295 287 262 240 265 277 274 277 277 275 274 278 275
335 311 293 301 304 303 303 304 304 303 300 298 296 295 295 293 304 299 298 296 295 294 292 291 290 291 298 296 294 264 273 279 282 282 276 271 273 279
307 303 297 303 305 306 306 304 303 304 304 300 298 299 298 294 299 300 300 298 296 295 298 299 294 290 289 296 304 301 276 270 279 280 282 279 273 276
315 307 297 293 301 302 298 297 295 300 304 308 299 295 296 297 297 296 295 302 306 303 299 298 296 297 294 293 294 299 303 297 286 285 292 288 289 287
315 309 306 300 300 295 295 297 300 302 304 300 296 296 296 296 295 297 298 300 300 296 293 292 299 304 303 302 301 303 307 309 309 301 295 287 288 284
305 312 306 300 293 287 290 294 296 297 296 293 294 295 298 299 297 293 292 293 295 299 310 310 311 311 307 306 306 306 308 311 312 318 312 305 297 296